Regional Weather Roundup
Issued by NWS

Home | Current Version | Previous Version | Text Only | Print | Product List | Glossary On
Versions: 1 2 3 4 5 6 7 8 9 10 11 12 13 14 15 16 17 18 19 20 21 22 23 24 25 26 27
000
ASUS45 KBOI 231210
RWRID

IDAHO REGIONAL WEATHER ROUNDUP
NATIONAL WEATHER SERVICE BOISE ID
500 AM MST THU FEB 23 2017

NOTE: "FAIR" INDICATES FEW OR NO CLOUDS BELOW 12000 FEET
WITH NO SIGNIFICANT WEATHER AND/OR OBSTRUCTIONS TO VISIBILITY

IDZ012-014-231300-
SOUTHWEST IDAHO


CITY           SKY/WX    TMP DP  RH WIND       PRES   REMARKS
BOISE          CLOUDY    32  24  72 NW22G29   29.81S WCI  19
CALDWELL       CLOUDY    33  24  69 W23       29.88R WCI  21
MOUNTAIN HOME  MOCLDY    32  27  80 NW30G37   29.78F WCI  18
$$

IDZ016-017-231300-
SOUTHCENTRAL IDAHO


CITY           SKY/WX    TMP DP  RH WIND       PRES   REMARKS
BURLEY         LGT SNOW  30  26  85 W14       29.67R FOG     WCI  19
JEROME           N/A    N/A N/A N/A MISG      29.69S
TWIN FALLS     SNOW      25  23  92 W25       29.69S VSB 1/2 WCI   9
$$

IDZ019>023-231300-
SOUTHEAST IDAHO


CITY           SKY/WX    TMP DP  RH WIND       PRES   REMARKS
IDAHO FALLS    CLOUDY    28  27  96 SE7       29.62S WCI  21
POCATELLO      LGT SNOW  27  26  96 W14       29.66F FOG     WCI  16
REXBURG        LGT SNOW  29  23  78 E6        29.63R WCI  23
$$

IDZ006-010-011-018-031-032-231300-
CENTRAL IDAHO MOUNTAINS


CITY           SKY/WX    TMP DP  RH WIND       PRES   REMARKS
MCCALL         CLOUDY    23  17  78 W8        29.76S WCI  14
HAILEY         CLOUDY    25  19  80 NW6       29.66S WCI  18
STANLEY          N/A     20  17  88 NW5       29.66S WCI  13
SALMON         CLOUDY    30  25  80 CALM      29.74F
CHALLIS        CLOUDY    28  22  78 NW7       29.67F WCI  21
$$

IDZ002-004-006-007-026-231300-
NORTHERN IDAHO


CITY           SKY/WX    TMP DP  RH WIND       PRES   REMARKS
LEWISTON       CLOUDY    34  28  79 VRB7      30.04S WCI  28
LOWELL           N/A     34  32  92 CALM      30.02R
COEUR D`ALENE  FOG       26  25  96 CALM      30.03R VSB 1/2
MULLAN PASS    FOG       20  16  84 N7        29.82S VSB 1   WCI  11
$$




USA.gov is the U.S. government's official web portal to all federal, state and local government web resources and services.